Leadville, CO

2:24 PM MDT on April 24, 2017 (GMT -0600)
Lake County

Weather History for KLXV - September, 2013

Change the Weather History Date:

Thursday, September 26, 2013

  Actual Average Record
Temperature  
Mean Temperature 50 °F -  
Max Temperature 62 °F 57 °F 71 °F (2010)
Min Temperature 37 °F 28 °F 20 °F (1985)
Degree Days  
Heating Degree Days 15 22  
Month to date heating degree days 382 483  
Since 1 July heating degree days 984 1205  
Cooling Degree Days 0 0  
Month to date cooling degree days 0 0  
Year to date cooling degree days 0 0  
Moisture  
Dew Point 16 °F    
Average Humidity 30    
Maximum Humidity 48    
Minimum Humidity 12    
Precipitation  
Precipitation 0.00 in 0.03 in 0.29 in (2002)
Month to date precipitation 3.40 0.97  
Year to date precipitation 15.04 9.92  
Sea Level Pressure  
Sea Level Pressure 29.51 in    
Wind  
Wind Speed 12 mph (SSE)    
Max Wind Speed 30 mph    
Max Gust Speed 43 mph    
Visibility 10 miles    
Events      
T = Trace of Precipitation, MM = Missing Value Source: NWS Daily Summary

Daily Weather History Graph

Daily Weather History Graph

Search for Another Location

Airport or City:

Trip Planner

Search our weather history database for the weather conditions in past years. The results will help you decide how hot, cold, wet, or windy it might be!

Date:

Astronomy

Sep. 26, 2013 Rise Set
Actual Time 6:56 AM MDT 6:55 PM MDT
Civil Twilight 6:30 AM MDT 7:22 PM MDT
Nautical Twilight 5:59 AM MDT 7:53 PM MDT
Astronomical Twilight 5:27 AM MDT 8:24 PM MDT
Moon 11:58 PM MDT (9/26) 1:49 PM MDT (9/26)
Length of Visible Light 12h 51m
Length of Day
11h 58m
Waning Gibbous, 54% of the Moon is Illuminated
Sep 26
Waning Gibbous
Sep 26
Last Quarter
Oct 4
New
Oct 11
First Quarter
Oct 18
Full

Hourly Weather History & Observations

Time (MDT) Temp. Windchill Dew Point Humidity Pressure Visibility Wind Dir Wind Speed Gust Speed Precip Events Conditions
12:53 AM 44.1 °F 42.5 °F 24.1 °F 45% 29.46 in 10.0 mi SSE 3.5 mph - N/A   Partly Cloudy
1:53 AM 43.0 °F - 23.0 °F 45% 29.48 in 10.0 mi Calm Calm - N/A   Clear
2:53 AM 41.0 °F - 21.0 °F 45% 29.49 in 10.0 mi Calm Calm - N/A   Clear
3:53 AM 39.0 °F 34.0 °F 21.0 °F 49% 29.50 in 10.0 mi East 6.9 mph - N/A   Clear
4:53 AM 39.9 °F 35.1 °F 19.0 °F 43% 29.51 in 10.0 mi East 6.9 mph - N/A   Clear
5:53 AM 44.1 °F 41.5 °F 17.1 °F 34% 29.51 in 10.0 mi ESE 4.6 mph - N/A   Clear
6:53 AM 39.9 °F - 16.0 °F 38% 29.57 in 10.0 mi Calm Calm - N/A   Clear
7:53 AM 43.0 °F 41.3 °F 17.1 °F 35% 29.56 in 10.0 mi SSE 3.5 mph - N/A   Clear
8:53 AM 48.0 °F - 14.0 °F 26% 29.52 in 10.0 mi SSE 9.2 mph - N/A   Clear
9:53 AM 51.1 °F - 14.0 °F 23% 29.52 in 10.0 mi South 15.0 mph 21.9 mph N/A   Clear
10:53 AM 54.0 °F - 14.0 °F 21% 29.49 in 10.0 mi South 25.3 mph 32.2 mph N/A   Clear
11:53 AM 55.9 °F - 14.0 °F 19% 29.48 in 10.0 mi South 19.6 mph 29.9 mph N/A   Clear
12:53 PM 57.9 °F - 15.1 °F 19% 29.49 in 10.0 mi South 18.4 mph 27.6 mph N/A   Clear
1:53 PM 60.1 °F - 17.1 °F 19% 29.47 in 10.0 mi South 20.7 mph 29.9 mph N/A   Clear
2:53 PM 61.0 °F - 12.9 °F 15% 29.47 in 10.0 mi South 17.3 mph 25.3 mph N/A   Clear
3:53 PM 61.0 °F - 9.0 °F 13% 29.47 in 10.0 mi South 17.3 mph 29.9 mph N/A   Clear
4:53 PM 60.1 °F - 9.0 °F 13% 29.47 in 10.0 mi SSE 26.5 mph 38.0 mph N/A   Clear
5:53 PM 57.9 °F - 9.0 °F 14% 29.47 in 10.0 mi South 21.9 mph 35.7 mph N/A   Clear
6:53 PM 54.0 °F - 10.0 °F 17% 29.54 in 10.0 mi SSW 15.0 mph 28.8 mph N/A   Clear
7:53 PM 51.1 °F - 12.9 °F 22% 29.56 in 10.0 mi South 15.0 mph - N/A   Clear
8:53 PM 50.0 °F - 12.9 °F 23% 29.55 in 10.0 mi South 18.4 mph 25.3 mph N/A   Clear
9:53 PM 48.0 °F - 14.0 °F 26% 29.54 in 10.0 mi SSE 8.1 mph - N/A   Clear
10:53 PM 48.0 °F - 16.0 °F 28% 29.52 in 10.0 mi SSE 9.2 mph 26.5 mph N/A   Clear
11:53 PM 45.0 °F 43.5 °F 19.9 °F 37% 29.52 in 10.0 mi Variable 3.5 mph - N/A   Partly Cloudy